Showing default

DSAT, 42794

Orbit data source: Space-Track

DSAT, 42794 is a payload satellite owned by D-ORBIT (IT) in SSO that was launched on Fri, 23 Jun 2017 UTC via a PSLV-XL launch vehicle from the Sirharikota (SRI). Payloads include a variety of satellites, spacecraft, and rockets equipped with specific instruments for various scientific and technological missions. These include communications satellites like Starlink; space stations such as the ISS; scientific satellites like the Hubble; Earth observation satellites from companies like Planet Labs, Umbra, and HawkEye 360; GPS; miniature CubeSats for education and research; and military/defense satellites.

Loading next visibility...
DSAT details
Identifier
42794, 2017-036AF
Orbit
SSO
Last TLE update13 hours ago
Origin
Flag of ITD-ORBIT (IT)
ManufacturerD-ORBIT
MissionNon-operational Commercial Technology
Bus & MotorCUBESAT 3U, Unknown motor
Mass4.5 kg wet, 4.2 kg dry
Launch date (UTC)
2017-06-23 (8 years ago)
Launch vehicle
PSLV-XL
Launch site
Sirharikota (SRI)
Object type
Payload
Rocket body
Debris
Shape & HBRBox, 0.3 m
Radar Cross Section0.035 m², Small (<0.1 m²)

Expand to show TLE details & history

TLE from 13 hours ago
0 DSAT
1 42794U 17036AF  24361.18294979  .00010471  00000-0  64432-3 0  9993
2 42794  97.4965 336.8053 0099157 213.6377 145.8531 15.06115350409564
Epoch: 2024-12-26T04:23Z
Definitive object data (Epoch: 2024-12-26T04:23:26.861Z)
Latitude-0.0001°
Longitude175.77739°
Altitude608.216 km
Speed7.524 km/s
True Right ascension22h 27m 13s
True Declination0° 00' 00"
Sunlit
Object was in daylight at TLE epoch
Visualization TLE readout
Latitude75.39501°
Longitude26.46207°
Altitude582.807 km
Speed7.564 km/s
Apparent Right ascension06h 23m 04s
Apparent Declination30° 19' 26"
Sunlit
Object is in daylight
Visualization observer readout
Local Sidereal Time16:58:52
Azimuth341.073° N
Elevation-17.092°
Doppler factor1
Orbital elements
Apogee altitude613.72 km
Perigee altitude476.423 km
Semi-major axis6,923.209 km
Eccentricity0.0099157
Inclination97.4965°
RAAN336.8053°
Arg. of periapsis213.6377°
True anomaly146.48441°
Mean anomaly145.8531°
Eccentric anomaly146.1694°
Mean motion3.76775 °/min
BSTAR0.00064432
Orbital period95.55 mins
Loading maneuver chart data...
Loading historical data...
Loading historical data...
Loading historical data...
Loading historical data...
Loading historical data...
Loading historical data...
Loading historical data...

DSAT Visibility forecast

Observer location: undefined°, undefined

Span
Click to sort rows by Start time (UTC) header in descending order
Start Az.
Max El. time (UTC)
Max El. Az.
Max El.
End time (UTC)
End Az.
7 mins2024-12-26 22:03:30.445Z136.551° SSE2024-12-26 22:07:30.445Z61.619° ENE30.106°2024-12-26 22:10:30.445Z9.467° NNE
4 mins2024-12-26 23:40:30.445Z241.398° WSW2024-12-26 23:41:30.445Z258.483° W17.688°2024-12-26 23:44:30.445Z307.018° NW
5 mins2024-12-27 11:16:30.445Z25.876° NE2024-12-27 11:18:30.445Z73.768° E39.846°2024-12-27 11:21:30.445Z177.117° S
|